Regional Weather Roundup
Issued by NWS Northern Indiana

Home | Current Version | Previous Version | Text Only | Print | Product List | Glossary Off
Versions: 1 2 3 4 5 6 7 8 9 10 11 12 13 14 15 16 17 18 19 20 21 22 23 24 25 26 27 28 29 30 31 32 33 34 35 36 37 38 39 40 41 42 43 44 45 46 47 48 49 50

000
ASUS43 KIWX 070500
RWRIWX

KIWX WEATHER ROUNDUP
NATIONAL WEATHER SERVICE NORTHERN INDIANA
1200 AM EST WED DEC 07 2016

NOTE: "FAIR" INDICATES FEW OR NO CLOUDS BELOW 12,000 FEET WITH NO
SIGNIFICANT WEATHER AND/OR OBSTRUCTIONS TO VISIBILITY.

* THESE STATIONS ARE NOT UNDER NWS QUALITY CONTROL. THEY ALSO MAY NOT
  REPORT WEATHER SUCH AS PRECIPITATION OR FOG.

INZ001>027-070600-
NORTHERN INDIANA

CITY           SKY/WX    TMP DP  RH WIND       PRES   REMARKS
SOUTH BEND     PTCLDY    29  22  75 W21G30    29.94R WCI  16
GOSHEN         PTCLDY    29  21  72 W16       29.93S WCI  17
MONTICELLO*    CLEAR     30  20  67 W12G20    30.01R WCI  20
WARSAW*        CLEAR     28  21  74 W13G20    29.95R WCI  18
ANGOLA*        MOCLDY    30  25  80 W12       29.90R WCI  21
FORT WAYNE     PTCLDY    31  23  72 W13       29.96R WCI  21
PERU/GRISSOM   CLEAR     30  26  86 W12       29.98R WCI  20

$$
INZ028>050-070600-
CENTRAL INDIANA

CITY           SKY/WX    TMP DP  RH WIND       PRES   REMARKS
LAFAYETTE      CLEAR     30  24  78 W8G17     30.04R WCI  22
KOKOMO*        CLEAR     31  26  82 W15       30.01R WCI  20
MUNCIE*        CLEAR     32  27  81 W12       29.99R WCI  23
INDIANAPOLIS   PTCLDY    31  26  82 W9        30.03R WCI  23

$$
MIZ043>046-050>051-056>058-064>065-071>073-077>080-070600-
SOUTHWEST LOWER MICHIGAN

CITY           SKY/WX    TMP DP  RH WIND       PRES   REMARKS
BATTLE CREEK   MOCLDY    33  24  69 W23G32    29.87R WCI  21
BENTON HARBOR  MOCLDY    32  23  69 W22G31    29.93R WCI  19
COLDWATER*     CLOUDY    32  26  76 W21G30    29.89R WCI  20
HILLSDALE*     MOCLDY    32  27  80 W17       29.86R WCI  21
HOLLAND        CLOUDY    33  25  72 W16G29    29.88R WCI  23
GRAND RAPIDS   CLOUDY    32  24  72 W18G26    29.86R WCI  20
KALAMAZOO      CLOUDY    34  23  64 W20G25    29.88R WCI  23
STURGIS*       CLOUDY    32  26  78 W13       29.89S WCI  22
THREE RIVERS*  CLOUDY    32  25  74 W14G22    29.91R WCI  22

$$
OHZ001>008-015>018-024>025-070600-
NORTHWEST OHIO

CITY           SKY/WX    TMP DP  RH WIND       PRES   REMARKS
DEFIANCE       MOCLDY    34  27  75 W8        29.93R WCI  27
FINDLAY        CLEAR     34  29  82 W15       29.91R WCI  24
TOLEDO EXPRESS PTCLDY    34  33  96 W14       29.89R WCI  25
TOLEDO METCALF PTCLDY    36  34  92 SW12      29.89R FOG
LIMA           MOCLDY    33  29  85 W16       29.94R WCI  23

$$
AND FOR LAKE MICHIGAN COASTAL AND OPEN LAKE BUOY OBSERVATIONS

STATION/POSITION TEMP    WIND        PRES    VSBY  WAVE
                 AIR SEA DIR/SP/G                  HT/PER
                 (F)     (DEG/KT/KT) (MB)    (MI)  (FT/S)
CALUMET HARBOR    28     230/  6/ 12 1014.3S
MICHIGAN CITY     31     240/ 31/ 35   N/A
BURNS HARBOR      32     270/ 24/ 28 1015.2R
SAINT JOSEPH      34     250/ 24/ 26 1013.5R

$$
&&



USA.gov is the U.S. government's official web portal to all federal, state and local government web resources and services.